Погода в Ольгополе

Украина / Винницкая область     48°11′47″N   29°29′46″E
темп.,
°C
ветер,
м/с
пор.,
м/с
влажн.,
%
обл.,
%
осадки,
мм/ч
давл.,
гПа
погр.,
м
13 апреля, вт
вт1300:00+7юв118884 0.0 102013
03:00+7ю118690 0.0 102021
06:00+8вюв1181100 0.0 101919
09:00+8юв2282100 0.0 1019138
12:00+12юв3363100 0.0 1019614
15:00+14юв4452100 0.0 10181123
18:00+13вюв4557100 0.0 1016474
21:00+9вюв4780100 0.0 1017224
14 апреля, ср
ср1400:00+9ююв51070100 0.0 1017388
03:00+8ююв4975100 0.0 1016327
06:00+7ююв4882100 0.0 1015266
09:00+9ююв5770100 0.0 1015432
12:00+13юв665892 0.0 10141307
15:00+13юв575481 0.0 10131591
18:00+12ююв5860100 0.0 1012628
21:00+9ю2572100 0.1 1013160
15 апреля, чт
чт1500:00+8ю2586100 0.4 1012297
03:00+7св2494100 3.4 1011233
06:00+7ссв3594100 0.9 1010292
09:00+7всв2496100 1.8 1011318
12:00+9зюз1184100 0.3 1011414
15:00+9з3485100 1.1 1011352
18:00+6з6992100 2.9 1011357
21:00+5з6994100 5.0 1012343
16 апреля, пт
пт1600:00+4зюз61093100 0.9 1011332
03:00+3зюз6994100 1.3 1011339
06:00+3зюз61095100 1.3 1011385
09:00+2зюз61096100 2.6 1011433
12:00+3зюз71095100 0.1 1012523
15:00+3зюз71094100 0.1 1013554
18:00+3зюз61096100 0.4 1014424
21:00+3з61095100 1.7 1015399
17 апреля, сб
сб1700:00+3з5996100 0.6 1016352
03:00+3з5897100 0.7 1016311
06:00+3з479799 0.0 1017295
09:00+5з3490100 0.0 1018271
12:00+8зюз337659 0.0 1019658
15:00+10зюз437091 0.1 1019991
18:00+9з227192 0.1 1019709
21:00+9юз117091 0.1 102014